Regional Weather Roundup
Issued by NWS Goodland, KS

Home | Current Version | Previous Version | Text Only | Print | Product List | Glossary Off
Versions: 1 2 3 4 5 6 7 8 9 10 11 12 13 14 15 16 17 18 19 20 21 22 23 24 25 26 27 28 29 30 31 32 33 34 35 36 37 38 39 40 41 42 43 44 45 46 47 48 49 50

000
ASUS43 KGLD 231159
RWRGLD

GOODLAND FORECAST AREA HOURLY WEATHER ROUNDUP
NATIONAL WEATHER SERVICE GOODLAND KS
600 AM MDT SUN APR 23 2017

...OFFICIAL OBSERVATIONS...

CITY           SKY/WX    TMP DP  RH WIND       PRES   REMARKS
GOODLAND KS    CLOUDY    38  30  73 SW14      30.12F
HILL CITY KS   CLEAR     32  29  88 W6        30.18S
IMPERIAL NEB   CLOUDY    36  30  79 S7        30.11F
MCCOOK NEB     CLOUDY    33  28  81 SW6       30.14F
AKRON CO       CLOUDY    38  31  76 S13       30.04F
BURLINGTON CO  NOT AVBL
LIMON CO       CLOUDY    35  31  85 S12       30.07F
$$

...UNOFFICIAL OBSERVATIONS...

CITY           SKY/WX    TMP DP  RH WIND       PRES   REMARKS
LENORA KS        N/A     39  32  76 MISG        N/A
NORTON KS      CLEAR     34  27  75 S5        30.15F
SHARON SPRINGS   N/A     36  31  83 S12         N/A
TRENTON NEB      N/A     36  32  85 CALM        N/A
KIT CARSON CO    N/A     32  29  87 CALM        N/A
$$



USA.gov is the U.S. government's official web portal to all federal, state and local government web resources and services.